Location: Veytaux
(46.4185°N, 6.9320°E)
Time: 07:25:37
(UTC+00:00)

S3M - Pass Details

Date: 27 May 2022
Orbit: 948 x 1005 km, 83.0° (Epoch: 01 July)

Event Time Altitude Azimuth Distance (km) Brightness Sun altitude
Exits shadow 00:24:09 38° 210° (SSW) 1,495 4.5 -21.2°
Maximum altitude 00:26:43 68° 280° (W) 1,077 4.1 -21.1°
Drops below altitude 10° 00:33:05 10° 4° (N) 2,772 7.5 -20.8°
Sets 00:35:38 0° 7° (N) 3,718 8.6 -20.7°
